| time (UTC) | temp F | wind direction | speed knots | gust knots | rain 1hr in | rain 24hr in | rain mn in | humidity % | barometer mb |
| 20260507053005 | 47 | 321 | 0.9 | 2.6 | 0.00 | 0.00 | 0.00 | 88 | 1017.2 |
| 20260507040003 | 47 | 333 | 0.9 | 2.6 | 0.00 | 0.00 | 0.00 | 88 | 1016.9 |
| 20260507030003 | 48 | 326 | 0.9 | 2.6 | 0.00 | 0.00 | 0.00 | 87 | 1016.7 |
| 20260506233004 | 49 | 33 | 0.0 | 0.0 | 0.00 | 0.00 | 0.00 | 82 | 1016.3 |
| 20260506220003 | 50 | 57 | 0.0 | 1.7 | 0.00 | 0.00 | 0.00 | 78 | 1016.0 |
| 20260506210006 | 51 | 78 | 0.0 | 2.6 | 0.00 | 0.00 | 0.00 | 77 | 1015.8 |
| 20260506200005 | 51 | 61 | 0.9 | 2.6 | 0.00 | 0.00 | 0.00 | 76 | 1015.5 |
| 20260506190005 | 52 | 52 | 0.0 | 6.1 | 0.00 | 0.00 | 0.00 | 72 | 1014.9 |
| 20260506183007 | 53 | 12 | 0.0 | 4.3 | 0.00 | 0.00 | 0.00 | 71 | 1014.6 |
| 20260506180005 | 53 | 245 | 1.7 | 5.2 | 0.00 | 0.00 | 0.00 | 70 | 1014.2 |
| 20260506173002 | 53 | 258 | 0.9 | 7.0 | 0.00 | 0.00 | 0.00 | 69 | 1014.1 |
| 20260506170002 | 54 | 205 | 2.6 | 7.0 | 0.00 | 0.00 | 0.00 | 68 | 1014.0 |
| 20260506153002 | 56 | 77 | 1.7 | 7.0 | 0.00 | 0.00 | 0.00 | 58 | 1013.9 |
| 20260506150004 | 58 | 177 | 1.7 | 11.3 | 0.00 | 0.00 | 0.00 | 56 | 1013.7 |
| 20260506140004 | 59 | 53 | 5.2 | 11.3 | 0.00 | 0.00 | 0.00 | 50 | 1013.6 |
| 20260506133004 | 59 | 205 | 1.7 | 10.4 | 0.00 | 0.00 | 0.00 | 54 | 1013.7 |
| 20260506130004 | 60 | 53 | 2.6 | 13.0 | 0.00 | 0.00 | 0.00 | 46 | 1013.6 |
| 20260506123004 | 58 | 82 | 2.6 | 10.4 | 0.00 | 0.00 | 0.00 | 50 | 1013.6 |
| 20260506113003 | 58 | 324 | 3.5 | 13.0 | 0.00 | 0.00 | 0.00 | 52 | 1013.7 |
| 20260506103002 | 58 | 71 | 4.3 | 11.3 | 0.00 | 0.00 | 0.00 | 53 | 1013.9 |
| 20260506093004 | 56 | 350 | 2.6 | 7.8 | 0.00 | 0.00 | 0.00 | 62 | 1013.9 |
| 20260506090004 | 54 | 13 | 3.5 | 8.7 | 0.00 | 0.00 | 0.00 | 64 | 1013.9 |